| time (UTC) | temp F | wind direction | speed MPH | gust MPH | rain 1hr in | rain 24hr in | rain mn in | humidity % | barometer mb |
| 20260509163819 | 68 | 359 | 5.0 | 10.0 | 0.00 | 0.00 | 0.00 | 23 | 1015.7 |
| 20260509163317 | 67 | 307 | 5.0 | 12.0 | 0.00 | 0.00 | 0.00 | 20 | 1015.7 |
| 20260509163014 | 67 | 290 | 5.0 | 13.0 | 0.00 | 0.00 | 0.00 | 20 | 1016.2 |
| 20260509162819 | 67 | 281 | 5.0 | 12.0 | 0.00 | 0.00 | 0.00 | 22 | 1015.8 |
| 20260509161505 | 65 | 337 | 3.0 | 10.0 | 0.00 | 0.00 | 0.00 | 22 | 1016.2 |
| 20260509161315 | 65 | 303 | 4.0 | 9.0 | 0.00 | 0.00 | 0.00 | 22 | 1015.7 |
| 20260509160815 | 65 | 319 | 4.0 | 11.0 | 0.00 | 0.00 | 0.00 | 23 | 1015.7 |
| 20260509160315 | 65 | 287 | 4.0 | 11.0 | 0.00 | 0.00 | 0.00 | 23 | 1015.7 |
| 20260509160007 | 65 | 33 | 5.0 | 12.0 | 0.00 | 0.00 | 0.00 | 23 | 1016.3 |
| 20260509155815 | 65 | 266 | 3.0 | 10.0 | 0.00 | 0.00 | 0.00 | 23 | 1015.7 |
| 20260509154516 | 64 | 267 | 2.0 | 11.0 | 0.00 | 0.00 | 0.00 | 25 | 1016.2 |
| 20260509154309 | 65 | 3 | 4.0 | 10.0 | 0.00 | 0.00 | 0.00 | 25 | 1015.7 |
| 20260509153809 | 65 | 284 | 4.0 | 10.0 | 0.00 | 0.00 | 0.00 | 25 | 1015.8 |
| 20260509153310 | 64 | 297 | 4.0 | 10.0 | 0.00 | 0.00 | 0.00 | 26 | 1015.7 |
| 20260509153016 | 64 | 355 | 4.0 | 10.0 | 0.00 | 0.00 | 0.00 | 26 | 1016.3 |
| 20260509152810 | 64 | 345 | 4.0 | 9.0 | 0.00 | 0.00 | 0.00 | 26 | 1015.8 |
| 20260509152309 | 64 | 321 | 3.0 | 10.0 | 0.00 | 0.00 | 0.00 | 27 | 1015.8 |
| 20260509151807 | 63 | 304 | 4.0 | 11.0 | 0.00 | 0.00 | 0.00 | 27 | 1015.8 |
| 20260509151516 | 63 | 283 | 4.0 | 12.0 | 0.00 | 0.00 | 0.00 | 26 | 1016.2 |
| 20260509150807 | 64 | 325 | 3.0 | 10.0 | 0.00 | 0.00 | 0.00 | 28 | 1015.8 |
| 20260509150304 | 63 | 283 | 4.0 | 8.0 | 0.00 | 0.00 | 0.00 | 32 | 1015.8 |
| 20260509150015 | 62 | 336 | 3.0 | 14.0 | 0.00 | 0.00 | 0.00 | 30 | 1016.2 |
| 20260509145804 | 62 | 269 | 3.0 | 13.0 | 0.00 | 0.00 | 0.00 | 33 | 1015.8 |
| 20260509144803 | 60 | 333 | 2.0 | 8.0 | 0.00 | 0.00 | 0.00 | 34 | 1015.9 |
| 20260509144516 | 59 | 269 | 1.0 | 5.0 | 0.00 | 0.00 | 0.00 | 36 | 1016.4 |
| 20260509144305 | 59 | 341 | 1.0 | 5.0 | 0.00 | 0.00 | 0.00 | 37 | 1015.9 |
| 20260509143804 | 58 | 292 | 1.0 | 5.0 | 0.00 | 0.00 | 0.00 | 37 | 1015.9 |
| 20260509143304 | 58 | 270 | 1.0 | 5.0 | 0.00 | 0.00 | 0.00 | 41 | 1016.2 |
| 20260509143016 | 57 | 19 | 1.0 | 5.0 | 0.00 | 0.00 | 0.00 | 38 | 1016.5 |
| 20260509142804 | 57 | 320 | 1.0 | 5.0 | 0.00 | 0.00 | 0.00 | 40 | 1016.0 |
| 20260509142258 | 57 | 331 | 1.0 | 4.0 | 0.00 | 0.00 | 0.00 | 40 | 1016.0 |
| 20260509141751 | 57 | 293 | 1.0 | 4.0 | 0.00 | 0.00 | 0.00 | 41 | 1016.0 |
| 20260509141521 | 56 | 309 | 0.0 | 4.0 | 0.00 | 0.00 | 0.00 | 42 | 1016.3 |
| 20260509141246 | 56 | 316 | 1.0 | 4.0 | 0.00 | 0.00 | 0.00 | 42 | 1016.0 |
| 20260509140741 | 56 | 281 | 1.0 | 4.0 | 0.00 | 0.00 | 0.00 | 42 | 1015.9 |
| 20260509140018 | 56 | 279 | 0.0 | 3.0 | 0.00 | 0.00 | 0.00 | 42 | 1016.3 |
| 20260509135733 | 56 | 284 | 1.0 | 3.0 | 0.00 | 0.00 | 0.00 | 42 | 1015.8 |
| 20260509135222 | 56 | 323 | 1.0 | 3.0 | 0.00 | 0.00 | 0.00 | 43 | 1015.9 |
| 20260509134716 | 56 | 260 | 1.0 | 3.0 | 0.00 | 0.00 | 0.00 | 45 | 1015.8 |
| 20260509134512 | 55 | 277 | 0.0 | 3.0 | 0.00 | 0.00 | 0.00 | 45 | 1016.1 |
| 20260509134211 | 55 | 294 | 0.0 | 3.0 | 0.00 | 0.00 | 0.00 | 47 | 1015.8 |
| 20260509133705 | 55 | 313 | 0.0 | 4.0 | 0.00 | 0.00 | 0.00 | 49 | 1015.7 |
| 20260509133158 | 55 | 285 | 0.0 | 4.0 | 0.00 | 0.00 | 0.00 | 51 | 1015.8 |
| 20260509133016 | 54 | 281 | 1.0 | 4.0 | 0.00 | 0.00 | 0.00 | 52 | 1016.2 |
| 20260509132652 | 54 | 347 | 0.0 | 2.0 | 0.00 | 0.00 | 0.00 | 58 | 1015.8 |
| 20260509132146 | 52 | 358 | 0.0 | 2.0 | 0.00 | 0.00 | 0.00 | 59 | 1015.9 |
| 20260509131640 | 51 | 359 | 0.0 | 2.0 | 0.00 | 0.00 | 0.00 | 66 | 1015.7 |
| 20260509131524 | 50 | 355 | 0.0 | 2.0 | 0.00 | 0.00 | 0.00 | 68 | 1016.1 |
| 20260509131134 | 49 | 33 | 0.0 | 2.0 | 0.00 | 0.00 | 0.00 | 70 | 1015.7 |
| 20260509130628 | 48 | 32 | 0.0 | 1.0 | 0.00 | 0.00 | 0.00 | 75 | 1015.7 |
| 20260509130122 | 47 | 1 | 0.0 | 0.0 | 0.00 | 0.00 | 0.00 | 75 | 1015.5 |
| 20260509130019 | 46 | 5 | 0.0 | 0.0 | 0.00 | 0.00 | 0.00 | 74 | 1015.9 |
| 20260509125616 | 46 | 1 | 0.0 | 2.0 | 0.00 | 0.00 | 0.00 | 73 | 1015.4 |
| 20260509125106 | 45 | 1 | 0.0 | 2.0 | 0.00 | 0.00 | 0.00 | 72 | 1015.4 |
| 20260509124600 | 44 | 340 | 0.0 | 2.0 | 0.00 | 0.00 | 0.00 | 73 | 1015.4 |
| 20260509124524 | 44 | 321 | 0.0 | 2.0 | 0.00 | 0.00 | 0.00 | 74 | 1015.8 |
| 20260509124101 | 43 | 17 | 0.0 | 2.0 | 0.00 | 0.00 | 0.00 | 76 | 1015.3 |
| 20260509123058 | 42 | 338 | 0.0 | 4.0 | 0.00 | 0.00 | 0.00 | 77 | 1015.3 |
| 20260509123011 | 41 | 338 | 0.0 | 1.0 | 0.00 | 0.00 | 0.00 | 77 | 1015.6 |
| 20260509122559 | 41 | 345 | 0.0 | 1.0 | 0.00 | 0.00 | 0.00 | 79 | 1015.3 |
| 20260509122056 | 40 | 345 | 0.0 | 1.0 | 0.00 | 0.00 | 0.00 | 78 | 1015.2 |
| 20260509121554 | 40 | 345 | 0.0 | 0.0 | 0.00 | 0.00 | 0.00 | 78 | 1015.2 |
| 20260509121524 | 39 | 338 | 0.0 | 0.0 | 0.00 | 0.00 | 0.00 | 77 | 1015.7 |
| 20260509121052 | 40 | 345 | 0.0 | 0.0 | 0.00 | 0.00 | 0.00 | 77 | 1015.2 |
| 20260509120550 | 40 | 345 | 0.0 | 3.0 | 0.00 | 0.00 | 0.00 | 77 | 1015.1 |
| 20260509120048 | 40 | 345 | 0.0 | 3.0 | 0.00 | 0.00 | 0.00 | 77 | 1015.1 |
| 20260509120023 | 40 | 338 | 0.0 | 3.0 | 0.00 | 0.00 | 0.00 | 77 | 1015.5 |
| 20260509115545 | 40 | 331 | 0.0 | 0.0 | 0.00 | 0.00 | 0.00 | 77 | 1014.9 |
| 20260509114527 | 40 | 325 | 0.0 | 0.0 | 0.00 | 0.00 | 0.00 | 76 | 1015.3 |
| 20260509114045 | 40 | 331 | 0.0 | 0.0 | 0.00 | 0.00 | 0.00 | 77 | 1014.8 |
| 20260509113024 | 40 | 325 | 0.0 | 1.0 | 0.00 | 0.00 | 0.00 | 75 | 1015.2 |
| 20260509112537 | 41 | 331 | 0.0 | 1.0 | 0.00 | 0.00 | 0.00 | 76 | 1014.9 |
| 20260509111538 | 41 | 330 | 0.0 | 0.0 | 0.00 | 0.00 | 0.00 | 73 | 1015.1 |
| 20260509111512 | 41 | 325 | 0.0 | 1.0 | 0.00 | 0.00 | 0.00 | 73 | 1015.6 |
| 20260509111036 | 42 | 330 | 0.0 | 1.0 | 0.00 | 0.00 | 0.00 | 74 | 1015.1 |
| 20260509110536 | 42 | 330 | 0.0 | 1.0 | 0.00 | 0.00 | 0.00 | 73 | 1015.1 |
| 20260509110032 | 42 | 331 | 0.0 | 2.0 | 0.00 | 0.00 | 0.00 | 71 | 1014.9 |
| 20260509110016 | 42 | 325 | 0.0 | 2.0 | 0.00 | 0.00 | 0.00 | 71 | 1015.5 |
| 20260509105526 | 42 | 331 | 0.0 | 2.0 | 0.00 | 0.00 | 0.00 | 73 | 1015.2 |
| 20260509105020 | 42 | 346 | 0.0 | 1.0 | 0.00 | 0.00 | 0.00 | 71 | 1015.2 |
| 20260509104522 | 42 | 340 | 0.0 | 3.0 | 0.00 | 0.00 | 0.00 | 70 | 1015.8 |
| 20260509104014 | 43 | 346 | 2.0 | 4.0 | 0.00 | 0.00 | 0.00 | 70 | 1015.2 |
| 20260509103514 | 43 | 309 | 1.0 | 4.0 | 0.00 | 0.00 | 0.00 | 72 | 1015.2 |
| 20260509103024 | 42 | 319 | 0.0 | 3.0 | 0.00 | 0.00 | 0.00 | 70 | 1015.6 |
| 20260509103013 | 42 | 324 | 1.0 | 3.0 | 0.00 | 0.00 | 0.00 | 71 | 1015.1 |
| 20260509102512 | 43 | 324 | 1.0 | 3.0 | 0.00 | 0.00 | 0.00 | 70 | 1015.1 |
| 20260509102011 | 43 | 325 | 0.0 | 2.0 | 0.00 | 0.00 | 0.00 | 70 | 1015.1 |
| 20260509101534 | 44 | 314 | 0.0 | 2.0 | 0.00 | 0.00 | 0.00 | 68 | 1015.6 |
| 20260509101513 | 44 | 319 | 0.0 | 2.0 | 0.00 | 0.00 | 0.00 | 68 | 1015.1 |
| 20260509101012 | 44 | 319 | 1.0 | 3.0 | 0.00 | 0.00 | 0.00 | 67 | 1015.2 |
| 20260509100022 | 44 | 314 | 0.0 | 2.0 | 0.00 | 0.00 | 0.00 | 67 | 1015.8 |
| 20260509100006 | 45 | 319 | 0.0 | 2.0 | 0.00 | 0.00 | 0.00 | 67 | 1015.2 |
| 20260509095505 | 45 | 319 | 0.0 | 2.0 | 0.00 | 0.00 | 0.00 | 67 | 1015.3 |
| 20260509095002 | 46 | 319 | 1.0 | 2.0 | 0.00 | 0.00 | 0.00 | 65 | 1015.2 |
| 20260509094521 | 45 | 314 | 1.0 | 3.0 | 0.00 | 0.00 | 0.00 | 65 | 1015.7 |
| 20260509094500 | 46 | 319 | 1.0 | 3.0 | 0.00 | 0.00 | 0.00 | 66 | 1015.2 |
| 20260509093958 | 46 | 0 | 1.0 | 3.0 | 0.00 | 0.00 | 0.00 | 66 | 1015.2 |
| 20260509093457 | 46 | 135 | 0.0 | 3.0 | 0.00 | 0.00 | 0.00 | 66 | 1015.2 |
| 20260509093024 | 45 | 137 | 0.0 | 5.0 | 0.00 | 0.00 | 0.00 | 65 | 1015.5 |
| 20260509092954 | 46 | 135 | 1.0 | 4.0 | 0.00 | 0.00 | 0.00 | 66 | 1015.2 |
| 20260509092452 | 46 | 150 | 2.0 | 4.0 | 0.00 | 0.00 | 0.00 | 66 | 1015.3 |
| 20260509091949 | 45 | 248 | 2.0 | 4.0 | 0.00 | 0.00 | 0.00 | 67 | 1015.4 |
| 20260509091526 | 45 | 298 | 2.0 | 4.0 | 0.00 | 0.00 | 0.00 | 66 | 1015.7 |
| 20260509091448 | 45 | 308 | 0.0 | 4.0 | 0.00 | 0.00 | 0.00 | 67 | 1015.4 |
| 20260509090448 | 47 | 330 | 1.0 | 3.0 | 0.00 | 0.00 | 0.00 | 64 | 1015.4 |
| 20260509090026 | 47 | 322 | 2.0 | 3.0 | 0.00 | 0.00 | 0.00 | 63 | 1015.8 |
| 20260509085948 | 47 | 326 | 1.0 | 3.0 | 0.00 | 0.00 | 0.00 | 63 | 1015.4 |
| 20260509085441 | 48 | 86 | 1.0 | 2.0 | 0.00 | 0.00 | 0.00 | 62 | 1015.4 |
| 20260509084517 | 47 | 97 | 0.0 | 4.0 | 0.00 | 0.00 | 0.00 | 61 | 1015.9 |
| 20260509083937 | 48 | 102 | 2.0 | 4.0 | 0.00 | 0.00 | 0.00 | 62 | 1015.5 |
| 20260509083021 | 47 | 83 | 1.0 | 7.0 | 0.00 | 0.00 | 0.00 | 62 | 1015.9 |
| 20260509082938 | 48 | 79 | 2.0 | 6.0 | 0.00 | 0.00 | 0.00 | 63 | 1015.7 |
| 20260509081530 | 47 | 80 | 0.0 | 2.0 | 0.00 | 0.00 | 0.00 | 63 | 1016.2 |
| 20260509081435 | 47 | 76 | 0.0 | 2.0 | 0.00 | 0.00 | 0.00 | 63 | 1015.8 |
| 20260509080935 | 48 | 76 | 0.0 | 2.0 | 0.00 | 0.00 | 0.00 | 63 | 1015.9 |
| 20260509080436 | 48 | 76 | 0.0 | 2.0 | 0.00 | 0.00 | 0.00 | 63 | 1015.8 |
| 20260509080028 | 47 | 80 | 0.0 | 2.0 | 0.00 | 0.00 | 0.00 | 62 | 1016.2 |
| 20260509075936 | 48 | 76 | 0.0 | 2.0 | 0.00 | 0.00 | 0.00 | 62 | 1015.9 |
| 20260509075436 | 48 | 75 | 0.0 | 2.0 | 0.00 | 0.00 | 0.00 | 62 | 1015.8 |
| 20260509074935 | 48 | 70 | 0.0 | 3.0 | 0.00 | 0.00 | 0.00 | 62 | 1015.9 |
| 20260509074528 | 48 | 111 | 0.0 | 4.0 | 0.00 | 0.00 | 0.00 | 61 | 1016.2 |
| 20260509073016 | 49 | 84 | 1.0 | 5.0 | 0.00 | 0.00 | 0.00 | 60 | 1016.3 |
| 20260509072934 | 49 | 87 | 2.0 | 5.0 | 0.00 | 0.00 | 0.00 | 61 | 1015.9 |
| 20260509072434 | 49 | 122 | 1.0 | 4.0 | 0.00 | 0.00 | 0.00 | 61 | 1016.2 |
| 20260509071522 | 48 | 138 | 0.0 | 4.0 | 0.00 | 0.00 | 0.00 | 61 | 1016.7 |
| 20260509071422 | 49 | 136 | 1.0 | 3.0 | 0.00 | 0.00 | 0.00 | 62 | 1016.3 |
| 20260509070916 | 49 | 136 | 1.0 | 3.0 | 0.00 | 0.00 | 0.00 | 61 | 1016.4 |
| 20260509070410 | 49 | 126 | 1.0 | 3.0 | 0.00 | 0.00 | 0.00 | 61 | 1016.4 |
| 20260509070005 | 49 | 134 | 0.0 | 2.0 | 0.00 | 0.00 | 0.00 | 60 | 1016.8 |
| 20260509065903 | 49 | 117 | 0.0 | 2.0 | 0.00 | 0.00 | 0.00 | 61 | 1016.4 |
| 20260509065358 | 49 | 96 | 0.0 | 1.0 | 0.00 | 0.00 | 0.00 | 60 | 1016.5 |
| 20260509064852 | 49 | 96 | 0.0 | 4.0 | 0.00 | 0.00 | 0.00 | 60 | 1016.5 |
| 20260509064510 | 49 | 100 | 0.0 | 4.0 | 0.00 | 0.00 | 0.00 | 60 | 1017.0 |
| 20260509064346 | 50 | 96 | 1.0 | 4.0 | 0.00 | 0.00 | 0.00 | 60 | 1016.5 |
| 20260509063840 | 50 | 106 | 1.0 | 4.0 | 0.00 | 0.00 | 0.00 | 60 | 1016.5 |
| 20260509063335 | 50 | 111 | 2.0 | 4.0 | 0.00 | 0.00 | 0.00 | 60 | 1016.6 |
| 20260509063017 | 49 | 125 | 1.0 | 4.0 | 0.00 | 0.00 | 0.00 | 60 | 1017.1 |
| 20260509062828 | 50 | 105 | 2.0 | 4.0 | 0.00 | 0.00 | 0.00 | 60 | 1016.6 |
| 20260509062322 | 50 | 104 | 2.0 | 5.0 | 0.00 | 0.00 | 0.00 | 61 | 1016.9 |
| 20260509061817 | 49 | 111 | 2.0 | 5.0 | 0.00 | 0.00 | 0.00 | 61 | 1016.8 |
| 20260509061502 | 49 | 107 | 2.0 | 6.0 | 0.00 | 0.00 | 0.00 | 60 | 1017.3 |
| 20260509061310 | 49 | 120 | 1.0 | 5.0 | 0.00 | 0.00 | 0.00 | 61 | 1016.9 |
| 20260509060803 | 49 | 115 | 1.0 | 5.0 | 0.00 | 0.00 | 0.00 | 62 | 1017.0 |
| 20260509060257 | 48 | 147 | 1.0 | 3.0 | 0.00 | 0.00 | 0.00 | 63 | 1017.1 |
| 20260509060002 | 47 | 153 | 1.0 | 3.0 | 0.00 | 0.00 | 0.00 | 63 | 1017.4 |
| 20260509055751 | 47 | 160 | 1.0 | 3.0 | 0.00 | 0.00 | 0.00 | 64 | 1017.1 |
| 20260509055245 | 47 | 126 | 0.0 | 2.0 | 0.00 | 0.00 | 0.00 | 66 | 1017.1 |
| 20260509054738 | 47 | 144 | 0.0 | 1.0 | 0.00 | 0.00 | 0.00 | 66 | 1017.3 |
| 20260509054506 | 46 | 186 | 0.0 | 1.0 | 0.00 | 0.00 | 0.00 | 66 | 1017.7 |
| 20260509054233 | 47 | 186 | 0.0 | 1.0 | 0.00 | 0.00 | 0.00 | 67 | 1017.3 |
| 20260509053728 | 47 | 186 | 0.0 | 0.0 | 0.00 | 0.00 | 0.00 | 67 | 1017.4 |
| 20260509053220 | 48 | 186 | 0.0 | 0.0 | 0.00 | 0.00 | 0.00 | 65 | 1017.3 |
| 20260509053014 | 48 | 186 | 0.0 | 0.0 | 0.00 | 0.00 | 0.00 | 64 | 1017.7 |
| 20260509052209 | 49 | 186 | 0.0 | 0.0 | 0.00 | 0.00 | 0.00 | 64 | 1017.4 |
| 20260509051521 | 48 | 186 | 0.0 | 0.0 | 0.00 | 0.00 | 0.00 | 63 | 1017.6 |
| 20260509050651 | 50 | 186 | 0.0 | 0.0 | 0.00 | 0.00 | 0.00 | 61 | 1017.4 |
| 20260509050145 | 50 | 186 | 0.0 | 0.0 | 0.00 | 0.00 | 0.00 | 60 | 1017.4 |
| 20260509050002 | 50 | 186 | 0.0 | 0.0 | 0.00 | 0.00 | 0.00 | 60 | 1017.7 |
| 20260509045133 | 50 | 176 | 0.0 | 2.0 | 0.00 | 0.00 | 0.00 | 60 | 1017.3 |
| 20260509044628 | 51 | 206 | 0.0 | 1.0 | 0.00 | 0.00 | 0.00 | 59 | 1017.3 |
| 20260509044507 | 50 | 205 | 0.0 | 1.0 | 0.00 | 0.00 | 0.00 | 59 | 1017.6 |
| 20260509044121 | 51 | 206 | 0.0 | 3.0 | 0.00 | 0.00 | 0.00 | 59 | 1017.3 |
| 20260509043615 | 51 | 206 | 0.0 | 3.0 | 0.00 | 0.00 | 0.00 | 58 | 1017.4 |
| 20260509043109 | 52 | 206 | 1.0 | 3.0 | 0.00 | 0.00 | 0.00 | 57 | 1017.4 |
| 20260509043009 | 51 | 205 | 0.0 | 3.0 | 0.00 | 0.00 | 0.00 | 57 | 1017.8 |
| 20260509042603 | 52 | 174 | 0.0 | 3.0 | 0.00 | 0.00 | 0.00 | 56 | 1017.5 |
| 20260509041552 | 52 | 77 | 0.0 | 1.0 | 0.00 | 0.00 | 0.00 | 56 | 1017.4 |
| 20260509041516 | 52 | 81 | 0.0 | 1.0 | 0.00 | 0.00 | 0.00 | 55 | 1017.8 |
| 20260509041045 | 52 | 77 | 0.0 | 2.0 | 0.00 | 0.00 | 0.00 | 55 | 1017.3 |
| 20260509040033 | 53 | 77 | 2.0 | 4.0 | 0.00 | 0.00 | 0.00 | 55 | 1017.1 |
| 20260509040019 | 52 | 81 | 0.0 | 4.0 | 0.00 | 0.00 | 0.00 | 55 | 1017.6 |
| 20260509035527 | 53 | 84 | 2.0 | 4.0 | 0.00 | 0.00 | 0.00 | 55 | 1017.1 |
| 20260509035022 | 53 | 77 | 2.0 | 4.0 | 0.00 | 0.00 | 0.00 | 56 | 1017.0 |
| 20260509034515 | 53 | 76 | 1.0 | 4.0 | 0.00 | 0.00 | 0.00 | 55 | 1017.1 |
| 20260509034513 | 52 | 80 | 2.0 | 4.0 | 0.00 | 0.00 | 0.00 | 55 | 1017.7 |
| 20260509034009 | 53 | 101 | 1.0 | 4.0 | 0.00 | 0.00 | 0.00 | 56 | 1017.1 |
| 20260509033503 | 53 | 86 | 0.0 | 1.0 | 0.00 | 0.00 | 0.00 | 56 | 1017.1 |
| 20260509033010 | 53 | 90 | 0.0 | 4.0 | 0.00 | 0.00 | 0.00 | 55 | 1017.6 |
| 20260509032957 | 53 | 86 | 1.0 | 4.0 | 0.00 | 0.00 | 0.00 | 55 | 1017.0 |
| 20260509032451 | 53 | 86 | 2.0 | 5.0 | 0.00 | 0.00 | 0.00 | 55 | 1016.8 |
| 20260509031515 | 53 | 76 | 2.0 | 5.0 | 0.00 | 0.00 | 0.00 | 55 | 1017.1 |
| 20260509031439 | 53 | 60 | 3.0 | 5.0 | 0.00 | 0.00 | 0.00 | 55 | 1016.5 |
| 20260509030934 | 53 | 57 | 2.0 | 5.0 | 0.00 | 0.00 | 0.00 | 55 | 1016.5 |
| 20260509030020 | 54 | 33 | 1.0 | 4.0 | 0.00 | 0.00 | 0.00 | 53 | 1017.2 |
| 20260509025921 | 54 | 22 | 1.0 | 4.0 | 0.00 | 0.00 | 0.00 | 54 | 1016.5 |
| 20260509025415 | 55 | 74 | 1.0 | 4.0 | 0.00 | 0.00 | 0.00 | 54 | 1016.4 |
| 20260509024908 | 55 | 104 | 2.0 | 5.0 | 0.00 | 0.00 | 0.00 | 53 | 1016.4 |
| 20260509024520 | 55 | 111 | 2.0 | 6.0 | 0.00 | 0.00 | 0.00 | 52 | 1017.2 |
| 20260509023857 | 56 | 70 | 2.0 | 5.0 | 0.00 | 0.00 | 0.00 | 53 | 1016.4 |
| 20260509023352 | 56 | 71 | 2.0 | 5.0 | 0.00 | 0.00 | 0.00 | 52 | 1016.3 |
| 20260509023006 | 56 | 89 | 3.0 | 7.0 | 0.00 | 0.00 | 0.00 | 51 | 1017.1 |
| 20260509022339 | 57 | 120 | 4.0 | 8.0 | 0.00 | 0.00 | 0.00 | 51 | 1016.0 |
| 20260509021833 | 57 | 93 | 4.0 | 8.0 | 0.00 | 0.00 | 0.00 | 51 | 1016.0 |
| 20260509021508 | 57 | 107 | 5.0 | 9.0 | 0.00 | 0.00 | 0.00 | 50 | 1016.6 |
| 20260509021327 | 57 | 79 | 4.0 | 7.0 | 0.00 | 0.00 | 0.00 | 51 | 1016.0 |
| 20260509020316 | 58 | 70 | 3.0 | 7.0 | 0.00 | 0.00 | 0.00 | 49 | 1015.9 |
| 20260509020016 | 58 | 71 | 3.0 | 8.0 | 0.00 | 0.00 | 0.00 | 48 | 1016.4 |
| 20260509015809 | 58 | 73 | 3.0 | 7.0 | 0.00 | 0.00 | 0.00 | 49 | 1015.9 |
| 20260509015306 | 59 | 66 | 4.0 | 7.0 | 0.00 | 0.00 | 0.00 | 48 | 1015.9 |
| 20260509014757 | 59 | 67 | 4.0 | 7.0 | 0.00 | 0.00 | 0.00 | 47 | 1015.9 |
| 20260509014517 | 59 | 80 | 4.0 | 8.0 | 0.00 | 0.00 | 0.00 | 47 | 1016.4 |
| 20260509014252 | 59 | 60 | 4.0 | 5.0 | 0.00 | 0.00 | 0.00 | 47 | 1015.8 |
| 20260509013745 | 59 | 51 | 3.0 | 6.0 | 0.00 | 0.00 | 0.00 | 47 | 1015.8 |
| 20260509013239 | 59 | 54 | 4.0 | 8.0 | 0.00 | 0.00 | 0.00 | 46 | 1015.7 |
| 20260509013026 | 59 | 64 | 3.0 | 9.0 | 0.00 | 0.00 | 0.00 | 46 | 1016.3 |
| 20260509012733 | 60 | 78 | 4.0 | 9.0 | 0.00 | 0.00 | 0.00 | 46 | 1015.5 |
| 20260509012227 | 60 | 68 | 5.0 | 9.0 | 0.00 | 0.00 | 0.00 | 45 | 1015.4 |
| 20260509011721 | 60 | 75 | 4.0 | 9.0 | 0.00 | 0.00 | 0.00 | 45 | 1015.4 |
| 20260509011508 | 60 | 106 | 5.0 | 9.0 | 0.00 | 0.00 | 0.00 | 44 | 1016.1 |
| 20260509011215 | 60 | 76 | 5.0 | 8.0 | 0.00 | 0.00 | 0.00 | 45 | 1015.4 |
| 20260509010709 | 61 | 69 | 5.0 | 9.0 | 0.00 | 0.00 | 0.00 | 43 | 1015.3 |
| 20260509010203 | 61 | 94 | 4.0 | 9.0 | 0.00 | 0.00 | 0.00 | 43 | 1015.3 |
| 20260509010033 | 61 | 109 | 3.0 | 10.0 | 0.00 | 0.00 | 0.00 | 43 | 1015.9 |
| 20260509005657 | 61 | 70 | 4.0 | 9.0 | 0.00 | 0.00 | 0.00 | 42 | 1015.3 |
| 20260509005151 | 62 | 61 | 4.0 | 8.0 | 0.00 | 0.00 | 0.00 | 42 | 1015.3 |
| 20260509004528 | 61 | 87 | 4.0 | 9.0 | 0.00 | 0.00 | 0.00 | 41 | 1015.9 |
| 20260509004139 | 62 | 53 | 5.0 | 9.0 | 0.00 | 0.00 | 0.00 | 42 | 1015.4 |
| 20260509003633 | 62 | 88 | 5.0 | 9.0 | 0.00 | 0.00 | 0.00 | 41 | 1015.4 |
| 20260509003127 | 62 | 70 | 6.0 | 11.0 | 0.00 | 0.00 | 0.00 | 41 | 1015.3 |
| 20260509003021 | 62 | 94 | 3.0 | 12.0 | 0.00 | 0.00 | 0.00 | 40 | 1015.8 |
| 20260509002620 | 62 | 47 | 7.0 | 11.0 | 0.00 | 0.00 | 0.00 | 40 | 1015.2 |
| 20260509001608 | 63 | 89 | 7.0 | 11.0 | 0.00 | 0.00 | 0.00 | 40 | 1015.2 |
| 20260509001529 | 62 | 77 | 6.0 | 12.0 | 0.00 | 0.00 | 0.00 | 39 | 1015.7 |
| 20260509001103 | 63 | 85 | 6.0 | 11.0 | 0.00 | 0.00 | 0.00 | 38 | 1015.2 |
| 20260509000557 | 64 | 48 | 4.0 | 10.0 | 0.00 | 0.00 | 0.00 | 36 | 1015.2 |
| 20260509000051 | 64 | 149 | 6.0 | 13.0 | 0.00 | 0.00 | 0.00 | 35 | 1015.2 |
| 20260509000028 | 63 | 135 | 4.0 | 14.0 | 0.00 | 0.00 | 0.00 | 35 | 1015.7 |
| 20260508235039 | 64 | 119 | 3.0 | 12.0 | 0.00 | 0.00 | 0.00 | 35 | 1015.2 |
| 20260508234539 | 64 | 108 | 2.0 | 7.0 | 0.00 | 0.00 | 0.00 | 35 | 1015.2 |
| 20260508234528 | 63 | 136 | 1.0 | 8.0 | 0.00 | 0.00 | 0.00 | 35 | 1015.7 |
| 20260508233536 | 63 | 117 | 3.0 | 7.0 | 0.00 | 0.00 | 0.00 | 39 | 1015.2 |
| 20260508233036 | 62 | 108 | 3.0 | 7.0 | 0.00 | 0.00 | 0.00 | 39 | 1015.2 |
| 20260508233021 | 62 | 124 | 4.0 | 9.0 | 0.00 | 0.00 | 0.00 | 38 | 1015.8 |
| 20260508232036 | 62 | 70 | 5.0 | 9.0 | 0.00 | 0.00 | 0.00 | 38 | 1015.2 |
| 20260508231536 | 63 | 91 | 5.0 | 9.0 | 0.00 | 0.00 | 0.00 | 38 | 1015.2 |
| 20260508231524 | 63 | 73 | 4.0 | 10.0 | 0.00 | 0.00 | 0.00 | 37 | 1015.8 |
| 20260508231035 | 64 | 60 | 6.0 | 12.0 | 0.00 | 0.00 | 0.00 | 37 | 1015.1 |
| 20260508230536 | 65 | 61 | 6.0 | 12.0 | 0.00 | 0.00 | 0.00 | 36 | 1015.1 |
| 20260508230035 | 65 | 54 | 5.0 | 9.0 | 0.00 | 0.00 | 0.00 | 37 | 1015.1 |
| 20260508230027 | 65 | 61 | 5.0 | 10.0 | 0.00 | 0.00 | 0.00 | 37 | 1015.6 |
| 20260508225537 | 65 | 45 | 5.0 | 11.0 | 0.00 | 0.00 | 0.00 | 37 | 1015.1 |
| 20260508225036 | 64 | 75 | 5.0 | 11.0 | 0.00 | 0.00 | 0.00 | 37 | 1015.1 |
| 20260508224536 | 64 | 90 | 5.0 | 10.0 | 0.00 | 0.00 | 0.00 | 37 | 1015.1 |
| 20260508224036 | 64 | 44 | 6.0 | 12.0 | 0.00 | 0.00 | 0.00 | 38 | 1015.2 |
| 20260508223536 | 64 | 47 | 7.0 | 14.0 | 0.00 | 0.00 | 0.00 | 38 | 1015.2 |
| 20260508223042 | 64 | 84 | 7.0 | 15.0 | 0.00 | 0.00 | 0.00 | 39 | 1015.7 |
| 20260508223036 | 64 | 70 | 7.0 | 14.0 | 0.00 | 0.00 | 0.00 | 40 | 1015.3 |
| 20260508222537 | 64 | 131 | 7.0 | 13.0 | 0.00 | 0.00 | 0.00 | 39 | 1015.3 |
| 20260508222031 | 64 | 102 | 8.0 | 15.0 | 0.00 | 0.00 | 0.00 | 38 | 1015.2 |
| 20260508221526 | 63 | 70 | 7.0 | 15.0 | 0.00 | 0.00 | 0.00 | 39 | 1015.2 |
| 20260508221520 | 63 | 97 | 10.0 | 16.0 | 0.00 | 0.00 | 0.00 | 39 | 1015.7 |
| 20260508221018 | 63 | 124 | 7.0 | 12.0 | 0.00 | 0.00 | 0.00 | 39 | 1015.3 |
| 20260508220513 | 64 | 48 | 8.0 | 16.0 | 0.00 | 0.00 | 0.00 | 37 | 1015.2 |
| 20260508220007 | 65 | 79 | 8.0 | 16.0 | 0.00 | 0.00 | 0.00 | 37 | 1015.3 |
| 20260508220004 | 64 | 65 | 7.0 | 17.0 | 0.00 | 0.00 | 0.00 | 36 | 1015.7 |
| 20260508215004 | 66 | 110 | 6.0 | 14.0 | 0.00 | 0.00 | 0.00 | 35 | 1015.3 |
| 20260508214509 | 66 | 149 | 6.0 | 12.0 | 0.00 | 0.00 | 0.00 | 35 | 1015.7 |
| 20260508214503 | 67 | 144 | 5.0 | 11.0 | 0.00 | 0.00 | 0.00 | 35 | 1015.3 |
| 20260508214002 | 67 | 164 | 4.0 | 10.0 | 0.00 | 0.00 | 0.00 | 34 | 1015.4 |
| 20260508213502 | 66 | 81 | 5.0 | 12.0 | 0.00 | 0.00 | 0.00 | 35 | 1015.4 |
| 20260508213018 | 66 | 119 | 3.0 | 15.0 | 0.00 | 0.00 | 0.00 | 32 | 1015.7 |
| 20260508213003 | 66 | 140 | 5.0 | 14.0 | 0.00 | 0.00 | 0.00 | 33 | 1015.3 |
| 20260508212502 | 66 | 210 | 4.0 | 14.0 | 0.00 | 0.00 | 0.00 | 34 | 1015.4 |
| 20260508212003 | 66 | 154 | 4.0 | 11.0 | 0.00 | 0.00 | 0.00 | 34 | 1015.4 |
| 20260508211520 | 66 | 138 | 2.0 | 16.0 | 0.00 | 0.00 | 0.00 | 32 | 1015.9 |
| 20260508211502 | 67 | 188 | 5.0 | 15.0 | 0.00 | 0.00 | 0.00 | 33 | 1015.4 |
| 20260508211002 | 68 | 201 | 6.0 | 16.0 | 0.00 | 0.00 | 0.00 | 32 | 1015.5 |
| 20260508210502 | 68 | 141 | 6.0 | 16.0 | 0.00 | 0.00 | 0.00 | 33 | 1015.5 |
| 20260508210026 | 67 | 228 | 5.0 | 13.0 | 0.00 | 0.00 | 0.00 | 33 | 1015.8 |
| 20260508210003 | 67 | 253 | 6.0 | 11.0 | 0.00 | 0.00 | 0.00 | 33 | 1015.4 |
| 20260508205503 | 68 | 124 | 5.0 | 13.0 | 0.00 | 0.00 | 0.00 | 34 | 1015.5 |
| 20260508204512 | 68 | 153 | 6.0 | 12.0 | 0.00 | 0.00 | 0.00 | 31 | 1016.0 |
| 20260508204457 | 69 | 152 | 4.0 | 13.0 | 0.00 | 0.00 | 0.00 | 32 | 1015.7 |
| 20260508203457 | 69 | 203 | 5.0 | 11.0 | 0.00 | 0.00 | 0.00 | 33 | 1015.7 |
| 20260508203017 | 68 | 184 | 5.0 | 11.0 | 0.00 | 0.00 | 0.00 | 32 | 1016.0 |
| 20260508202958 | 68 | 184 | 5.0 | 11.0 | 0.00 | 0.00 | 0.00 | 32 | 1015.7 |
| 20260508202458 | 67 | 221 | 4.0 | 8.0 | 0.00 | 0.00 | 0.00 | 34 | 1015.7 |
| 20260508201958 | 68 | 75 | 4.0 | 11.0 | 0.00 | 0.00 | 0.00 | 35 | 1015.7 |
| 20260508201517 | 66 | 138 | 3.0 | 13.0 | 0.00 | 0.00 | 0.00 | 37 | 1016.2 |
| 20260508200959 | 66 | 85 | 4.0 | 10.0 | 0.00 | 0.00 | 0.00 | 34 | 1015.8 |
| 20260508200453 | 67 | 111 | 3.0 | 10.0 | 0.00 | 0.00 | 0.00 | 32 | 1015.8 |
| 20260508200023 | 67 | 181 | 2.0 | 11.0 | 0.00 | 0.00 | 0.00 | 34 | 1016.5 |
| 20260508195954 | 67 | 205 | 3.0 | 9.0 | 0.00 | 0.00 | 0.00 | 35 | 1015.9 |
| 20260508195454 | 67 | 158 | 4.0 | 9.0 | 0.00 | 0.00 | 0.00 | 36 | 1015.9 |
| 20260508194955 | 67 | 65 | 3.0 | 7.0 | 0.00 | 0.00 | 0.00 | 34 | 1015.9 |
| 20260508194527 | 67 | 138 | 2.0 | 8.0 | 0.00 | 0.00 | 0.00 | 35 | 1016.6 |
| 20260508194454 | 67 | 143 | 3.0 | 7.0 | 0.00 | 0.00 | 0.00 | 36 | 1016.0 |
| 20260508193954 | 66 | 247 | 3.0 | 7.0 | 0.00 | 0.00 | 0.00 | 36 | 1016.0 |
| 20260508193455 | 66 | 179 | 4.0 | 9.0 | 0.00 | 0.00 | 0.00 | 36 | 1016.0 |
| 20260508193012 | 65 | 208 | 3.0 | 10.0 | 0.00 | 0.00 | 0.00 | 34 | 1016.7 |
| 20260508192953 | 66 | 207 | 3.0 | 9.0 | 0.00 | 0.00 | 0.00 | 33 | 1016.0 |
| 20260508192454 | 66 | 113 | 3.0 | 7.0 | 0.00 | 0.00 | 0.00 | 35 | 1016.0 |
| 20260508191514 | 65 | 202 | 1.0 | 8.0 | 0.00 | 0.00 | 0.00 | 32 | 1016.7 |
| 20260508191451 | 65 | 210 | 3.0 | 7.0 | 0.00 | 0.00 | 0.00 | 32 | 1016.0 |
| 20260508190950 | 66 | 64 | 3.0 | 7.0 | 0.00 | 0.00 | 0.00 | 32 | 1016.2 |
| 20260508190449 | 66 | 190 | 3.0 | 7.0 | 0.00 | 0.00 | 0.00 | 32 | 1016.2 |
| 20260508190038 | 66 | 197 | 3.0 | 10.0 | 0.00 | 0.00 | 0.00 | 31 | 1016.8 |
| 20260508185950 | 66 | 188 | 3.0 | 8.0 | 0.00 | 0.00 | 0.00 | 31 | 1016.2 |
| 20260508185451 | 67 | 148 | 2.0 | 8.0 | 0.00 | 0.00 | 0.00 | 32 | 1016.3 |
| 20260508184950 | 67 | 70 | 1.0 | 3.0 | 0.00 | 0.00 | 0.00 | 33 | 1016.3 |
| 20260508184533 | 65 | 316 | 1.0 | 3.0 | 0.00 | 0.00 | 0.00 | 33 | 1017.0 |
| 20260508184449 | 65 | 319 | 1.0 | 3.0 | 0.00 | 0.00 | 0.00 | 33 | 1016.3 |
| 20260508183951 | 64 | 318 | 2.0 | 7.0 | 0.00 | 0.00 | 0.00 | 35 | 1016.3 |
| 20260508183444 | 64 | 151 | 3.0 | 8.0 | 0.00 | 0.00 | 0.00 | 35 | 1016.4 |
| 20260508183035 | 64 | 93 | 4.0 | 9.0 | 0.00 | 0.00 | 0.00 | 32 | 1017.0 |
| 20260508182938 | 65 | 86 | 2.0 | 7.0 | 0.00 | 0.00 | 0.00 | 32 | 1016.5 |
| 20260508181933 | 63 | 205 | 2.0 | 6.0 | 0.00 | 0.00 | 0.00 | 33 | 1016.6 |
| 20260508181518 | 63 | 53 | 2.0 | 10.0 | 0.00 | 0.00 | 0.00 | 32 | 1017.2 |
| 20260508180933 | 64 | 340 | 3.0 | 9.0 | 0.00 | 0.00 | 0.00 | 32 | 1016.8 |
| 20260508180431 | 64 | 348 | 2.0 | 8.0 | 0.00 | 0.00 | 0.00 | 34 | 1016.8 |
| 20260508180018 | 63 | 342 | 1.0 | 8.0 | 0.00 | 0.00 | 0.00 | 34 | 1017.3 |
| 20260508175933 | 63 | 317 | 3.0 | 7.0 | 0.00 | 0.00 | 0.00 | 35 | 1016.8 |
| 20260508174523 | 63 | 242 | 1.0 | 6.0 | 0.00 | 0.00 | 0.00 | 34 | 1017.4 |
| 20260508174430 | 63 | 26 | 3.0 | 5.0 | 0.00 | 0.00 | 0.00 | 34 | 1016.9 |
| 20260508173929 | 63 | 67 | 3.0 | 8.0 | 0.00 | 0.00 | 0.00 | 33 | 1017.0 |
| 20260508173428 | 63 | 169 | 3.0 | 8.0 | 0.00 | 0.00 | 0.00 | 33 | 1017.1 |
| 20260508173026 | 62 | 294 | 2.0 | 8.0 | 0.00 | 0.00 | 0.00 | 34 | 1017.5 |
| 20260508172927 | 62 | 302 | 3.0 | 7.0 | 0.00 | 0.00 | 0.00 | 37 | 1017.1 |
| 20260508172427 | 63 | 345 | 3.0 | 8.0 | 0.00 | 0.00 | 0.00 | 34 | 1017.0 |
| 20260508171925 | 62 | 56 | 3.0 | 8.0 | 0.00 | 0.00 | 0.00 | 36 | 1016.9 |
| 20260508171528 | 62 | 45 | 1.0 | 9.0 | 0.00 | 0.00 | 0.00 | 39 | 1017.4 |
| 20260508170926 | 62 | 25 | 3.0 | 9.0 | 0.00 | 0.00 | 0.00 | 37 | 1017.0 |
| 20260508170427 | 62 | 47 | 3.0 | 9.0 | 0.00 | 0.00 | 0.00 | 37 | 1017.0 |
| 20260508170018 | 61 | 50 | 2.0 | 10.0 | 0.00 | 0.00 | 0.00 | 39 | 1017.6 |
| 20260508165927 | 61 | 37 | 3.0 | 9.0 | 0.00 | 0.00 | 0.00 | 37 | 1017.1 |
| 20260508165420 | 61 | 345 | 3.0 | 9.0 | 0.00 | 0.00 | 0.00 | 39 | 1017.1 |
| 20260508164913 | 61 | 314 | 3.0 | 9.0 | 0.00 | 0.00 | 0.00 | 41 | 1017.1 |
| 20260508164533 | 60 | 59 | 3.0 | 11.0 | 0.00 | 0.00 | 0.00 | 38 | 1017.6 |
| 20260508164407 | 60 | 359 | 3.0 | 10.0 | 0.00 | 0.00 | 0.00 | 39 | 1017.3 |